Temp
54 54 54 55 55 55 47 37 30 45 46 33 37 34 37 43 41 44 43 42 39 36 37 35 33 34 38 45 44 38 41 32 22 31 38 41 37 33 31 21 19 20 20 26
54 54 54 54 55 55 41 35 35 44 43 29 36 38 38 41 41 42 43 40 42 40 37 33 35 38 44 46 44 39 42 28 17 26 32 36 32 35 35 32 27 18 19 27
54 54 54 54 54 55 43 36 30 36 38 37 36 34 36 38 45 43 45 42 43 40 38 39 36 37 43 46 47 50 46 33 26 22 26 30 26 33 35 31 22 24 27 30
54 54 53 53 53 53 42 36 35 37 31 34 35 35 38 38 38 44 44 41 42 41 36 36 35 38 39 44 49 44 41 26 27 32 35 33 33 34 33 28 32 26 32 33
54 53 53 53 53 52 41 36 39 42 36 36 35 37 36 38 40 42 41 40 42 41 38 39 35 39 37 38 40 41 38 26 32 26 33 32 30 33 34 35 35 35 36 34
54 53 53 53 53 49 39 40 45 41 38 34 33 35 39 40 42 44 44 43 40 40 42 43 45 44 44 43 39 36 35 32 29 25 32 31 27 32 34 35 38 37 31 40
54 54 53 53 53 48 42 43 41 39 32 33 35 38 40 41 41 39 43 44 41 44 48 48 46 44 43 43 40 42 34 34 32 27 29 20 36 39 40 38 40 40 41 43
53 53 53 53 53 52 38 41 37 38 35 39 36 38 38 41 41 40 41 43 45 47 45 38 35 36 40 42 43 42 43 37 30 28 28 31 36 39 38 37 38 43 42 44
53 53 53 53 53 53 38 42 38 37 35 33 40 37 37 35 34 38 41 44 46 45 40 37 30 27 31 33 36 42 42 41 34 32 27 22 36 42 44 43 33 44 43 43
52 53 53 53 53 52 41 37 39 34 34 40 40 34 38 40 36 36 37 39 40 42 35 32 30 28 35 32 33 33 35 35 32 32 30 31 42 44 45 31 35 42 43 43
51 52 53 53 53 53 45 38 40 35 29 32 38 41 37 40 39 35 39 39 39 36 33 32 32 31 33 31 35 32 35 33 32 33 31 26 44 43 38 43 42 43 42 41
53 52 52 53 53 53 47 36 42 42 34 32 38 41 42 41 43 40 42 40 38 39 34 33 33 32 34 32 28 35 34 36 33 34 36 45 46 44 45 44 42 41 40 41
52 52 52 53 53 52 50 41 41 39 35 32 32 33 42 47 46 49 37 42 46 41 41 36 35 33 35 30 31 32 37 43 41 38 41 43 46 47 44 43 41 42 42 42
51 52 52 52 52 52 51 41 41 39 35 27 29 43 38 46 47 47 47 45 47 45 43 37 35 34 38 35 36 37 38 40 38 38 42 44 43 46 46 43 42 41 40 40
51 52 51 52 51 51 45 41 42 43 35 26 28 37 41 43 43 45 45 45 44 42 42 38 37 40 37 36 36 34 38 37 35 35 42 42 44 47 45 43 41 42 40 37
51 51 51 51 51 50 42 35 40 41 41 32 24 34 35 40 43 45 44 45 46 44 43 39 41 45 40 36 36 42 41 45 47 43 43 45 47 44 44 42 41 41 40 39
51 51 50 50 50 43 36 32 37 45 42 32 26 29 39 42 46 46 46 47 45 44 44 40 41 42 43 40 36 41 45 46 47 47 45 41 42 43 42 41 40 42 39 38
50 50 50 49 49 44 38 41 45 43 37 34 26 29 34 46 42 42 46 42 43 44 43 41 40 41 42 36 37 40 43 42 44 44 44 43 43 41 39 39 38 37 36 36
49 49 49 41 36 32 36 47 46 42 36 29 30 28 33 45 43 43 42 44 39 43 40 39 41 39 36 35 36 39 39 35 36 38 38 40 41 42 38 37 36 36 35 35
48 42 36 33 35 46 45 40 35 34 34 33 28 34 35 43 43 40 41 42 38 33 39 41 37 38 39 39 39 39 38 35 34 31 31 31 31 31 36 36 37 37 36 35
37 32 32 35 44 37 37 32 30 32 30 33 33 36 39 43 39 39 42 36 35 33 36 37 34 35 38 38 37 37 33 34 34 35 37 38 37 37 38 37 37 37 36 36
37 36 41 39 36 32 30 30 33 32 32 37 36 38 39 41 43 38 38 33 34 31 38 34 31 33 33 33 32 33 33 34 35 38 38 38 38 38 38 38 36 36 36 36
39 36 32 31 31 26 26 24 30 32 33 34 35 35 38 40 40 35 35 33 32 34 32 32 33 31 30 30 31 32 34 37 38 37 38 38 38 39 42 41 40 39 37 36
31 28 25 26 24 26 24 28 26 34 34 34 35 35 36 36 35 36 33 35 34 29 27 30 29 30 29 30 32 32 32 34 34 36 36 36 37 37 37 38 38 38 36 35
25 29 20 20 29 31 31 32 32 35 36 35 35 35 37 33 34 35 33 31 28 31 29 26 30 25 29 30 31 31 31 32 33 34 35 36 36 36 35 35 35 35 34 33
24 24 23 28 25 23 29 30 30 35 35 35 34 33 33 33 32 31 30 29 28 27 24 29 26 28 29 29 30 30 31 31 32 33 33 34 35 34 34 35 35 34 34 32
18 22 29 26 27 26 26 33 34 35 33 32 32 31 32 32 30 29 33 31 30 25 30 27 25 26 27 28 29 30 30 30 31 30 31 31 32 34 34 32 32 32 32 32
MSLP
1018.27 1017.88 1017.10 1016.24 1015.01 1013.81 1013.46 1014.13 1014.02 1013.15 1012.88 1013.43 1013.69 1013.45 1013.06 1012.15 1011.26 1010.52 1010.47 1010.75 1011.24 1011.90 1012.47 1012.85 1013.00 1013.30 1013.03 1012.86 1013.43 1014.27 1014.63 1015.74 1017.00 1016.72 1016.54 1016.47 1016.73 1017.39 1018.10 1019.46 1020.69 1020.79 1019.52 1015.43
1018.57 1017.94 1017.22 1016.41 1015.56 1014.55 1014.52 1014.93 1014.71 1013.19 1013.06 1014.09 1013.99 1013.34 1012.63 1012.02 1011.11 1010.52 1010.39 1010.65 1010.92 1011.43 1012.19 1012.93 1013.11 1013.02 1012.56 1012.86 1013.35 1013.82 1014.51 1015.82 1017.03 1017.26 1017.22 1016.86 1016.78 1017.09 1017.77 1018.82 1019.52 1019.46 1018.67 1014.93
1018.78 1018.27 1017.42 1016.50 1015.78 1015.03 1014.92 1015.31 1015.46 1014.58 1014.08 1014.45 1014.21 1013.69 1012.71 1011.76 1010.83 1010.43 1010.26 1010.51 1010.75 1011.37 1012.04 1012.29 1012.91 1012.92 1012.75 1012.75 1013.16 1013.69 1014.17 1015.72 1016.66 1017.06 1016.81 1016.66 1016.85 1016.90 1017.44 1018.17 1018.87 1018.08 1016.21 1014.17
1018.92 1018.55 1017.85 1016.99 1016.06 1015.16 1015.38 1015.79 1016.29 1016.21 1015.63 1014.71 1014.48 1013.79 1012.82 1011.84 1011.00 1010.41 1010.22 1010.58 1010.67 1011.17 1011.84 1012.23 1012.61 1012.80 1012.88 1012.99 1013.10 1013.84 1014.46 1015.98 1016.83 1016.87 1016.72 1016.60 1016.46 1016.56 1016.81 1017.13 1017.05 1016.93 1014.39 1014.13
1019.14 1018.87 1018.15 1017.50 1016.56 1015.50 1015.79 1016.46 1016.28 1015.91 1015.78 1015.20 1014.56 1013.72 1012.83 1012.07 1011.40 1010.86 1010.48 1010.65 1010.89 1011.00 1011.44 1011.71 1012.19 1012.49 1012.80 1012.91 1013.49 1014.09 1014.93 1016.43 1017.14 1016.98 1016.34 1016.09 1015.88 1015.34 1015.44 1015.67 1015.77 1015.43 1014.63 1013.30
1019.24 1019.00 1018.51 1017.96 1017.34 1016.56 1017.02 1017.21 1016.56 1016.31 1015.75 1015.49 1014.95 1014.10 1013.05 1012.16 1011.53 1011.23 1010.91 1010.83 1011.14 1011.34 1011.44 1011.39 1011.44 1011.73 1012.18 1012.53 1013.28 1014.22 1015.05 1016.07 1016.98 1017.03 1016.23 1015.63 1014.95 1013.30 1013.59 1013.88 1013.77 1013.65 1013.60 1011.64
1019.45 1018.98 1018.61 1018.27 1017.96 1018.12 1018.16 1018.00 1017.51 1016.74 1016.00 1015.43 1014.91 1014.18 1013.57 1012.55 1011.88 1011.60 1011.41 1011.19 1011.23 1011.56 1011.39 1011.58 1011.81 1012.18 1012.57 1012.92 1013.34 1013.70 1014.84 1015.67 1016.37 1016.64 1015.98 1014.98 1012.55 1011.90 1011.85 1012.21 1011.97 1012.06 1011.60 1010.90
1019.53 1019.06 1018.71 1018.35 1018.25 1018.18 1018.53 1018.26 1018.28 1017.43 1016.52 1015.74 1014.80 1014.04 1013.63 1012.70 1012.22 1011.96 1011.75 1011.66 1011.65 1011.48 1011.82 1012.36 1012.81 1013.05 1013.18 1013.20 1013.38 1013.68 1014.08 1015.08 1015.86 1016.03 1015.40 1013.70 1011.47 1011.17 1011.26 1011.32 1010.95 1010.51 1010.87 1010.60
1019.43 1019.09 1018.76 1018.45 1018.38 1018.24 1018.63 1018.50 1018.52 1018.32 1017.57 1015.91 1015.40 1014.64 1013.78 1013.35 1012.83 1012.54 1012.14 1011.85 1011.74 1011.89 1012.42 1013.00 1013.43 1013.45 1013.31 1013.58 1013.79 1013.91 1014.28 1014.58 1015.36 1015.30 1014.69 1013.15 1011.16 1010.39 1010.17 1010.33 1010.38 1009.83 1010.13 1010.38
1019.25 1018.90 1018.68 1018.45 1018.38 1018.28 1018.71 1018.90 1018.66 1018.82 1018.19 1016.28 1015.80 1015.24 1014.51 1013.73 1013.23 1012.96 1012.73 1012.35 1012.32 1012.44 1013.14 1013.65 1013.74 1013.60 1013.25 1013.48 1013.55 1014.01 1014.31 1014.50 1014.59 1014.50 1013.90 1012.15 1010.43 1010.05 1010.12 1010.32 1010.45 1009.63 1009.86 1010.05
1018.99 1018.81 1018.47 1018.33 1018.25 1018.20 1018.48 1018.64 1018.54 1018.96 1018.67 1017.04 1016.30 1015.70 1015.30 1014.61 1013.86 1013.42 1012.82 1012.96 1012.92 1013.30 1013.63 1013.87 1013.63 1013.63 1013.34 1013.35 1013.06 1013.14 1013.22 1013.53 1013.57 1013.65 1013.09 1011.69 1009.93 1010.09 1010.17 1009.72 1009.46 1009.64 1009.81 1009.99
1018.66 1018.47 1018.19 1018.05 1017.98 1017.88 1018.10 1018.38 1018.23 1018.32 1018.65 1017.33 1016.38 1015.94 1015.43 1015.16 1014.65 1014.36 1013.20 1012.44 1012.19 1012.32 1012.94 1013.54 1013.55 1013.50 1013.40 1013.24 1013.13 1012.71 1012.66 1012.02 1012.26 1012.27 1011.21 1009.98 1009.64 1009.55 1009.25 1009.42 1009.76 1009.79 1010.01 1010.19
1018.38 1018.05 1017.89 1017.70 1017.57 1017.46 1017.54 1017.87 1017.85 1018.06 1017.85 1016.63 1015.89 1014.81 1013.82 1013.99 1013.92 1014.07 1014.29 1012.32 1011.59 1011.91 1011.95 1012.84 1013.13 1013.13 1012.96 1013.06 1012.88 1012.58 1011.91 1011.49 1011.65 1011.50 1010.02 1009.79 1009.56 1009.10 1009.14 1009.25 1009.56 1009.74 1010.01 1010.16
1018.12 1017.68 1017.52 1017.42 1017.23 1017.03 1016.97 1017.40 1017.51 1017.74 1017.71 1016.73 1014.90 1013.58 1013.45 1012.75 1013.03 1013.20 1012.97 1012.38 1011.97 1011.70 1011.78 1012.41 1012.68 1012.80 1012.43 1012.51 1012.42 1012.44 1011.80 1011.62 1011.26 1010.93 1010.22 1009.63 1009.10 1009.08 1009.02 1009.28 1009.50 1009.76 1010.07 1010.36
1017.73 1017.43 1017.25 1017.05 1016.81 1016.66 1016.66 1016.78 1016.63 1016.76 1017.38 1016.35 1014.62 1013.24 1011.45 1011.02 1011.49 1012.05 1011.98 1012.29 1012.25 1011.56 1011.85 1012.14 1012.28 1012.07 1012.31 1012.32 1012.27 1011.84 1011.30 1011.07 1011.16 1010.85 1010.47 1010.46 1009.76 1009.37 1009.36 1009.50 1009.51 1009.79 1010.15 1010.75
1017.29 1016.99 1016.82 1016.60 1016.42 1016.33 1016.76 1016.74 1016.46 1016.41 1016.54 1015.90 1014.91 1012.31 1010.74 1010.13 1009.99 1010.41 1010.78 1011.13 1011.17 1010.64 1011.14 1011.59 1011.51 1011.30 1011.66 1012.10 1011.85 1010.65 1010.58 1010.61 1010.68 1010.79 1010.68 1010.29 1009.63 1009.37 1009.25 1009.44 1009.53 1009.85 1010.20 1010.71
1016.91 1016.52 1016.32 1016.03 1015.91 1016.37 1016.62 1016.55 1016.46 1015.92 1016.33 1016.12 1014.56 1012.08 1009.89 1009.20 1009.24 1009.55 1009.69 1009.99 1009.99 1010.22 1010.89 1011.25 1011.19 1011.20 1011.39 1011.72 1011.48 1010.80 1010.80 1010.66 1010.51 1010.72 1010.65 1010.01 1009.48 1009.43 1009.11 1009.35 1009.67 1010.04 1010.47 1010.82
1016.41 1016.10 1015.83 1015.74 1015.62 1016.01 1016.24 1016.04 1015.97 1016.18 1016.21 1015.89 1014.33 1011.43 1009.49 1008.21 1007.98 1008.21 1008.70 1009.49 1010.00 1010.37 1010.69 1010.94 1011.02 1011.33 1011.43 1011.49 1011.29 1011.37 1011.36 1011.15 1010.80 1011.01 1011.19 1010.86 1010.12 1009.71 1009.46 1009.74 1010.17 1010.64 1010.97 1011.13
1016.19 1015.81 1015.64 1015.89 1016.11 1016.24 1015.81 1015.35 1015.65 1016.14 1016.61 1015.36 1013.81 1012.00 1008.73 1008.08 1008.03 1008.34 1008.95 1009.26 1010.20 1010.60 1010.41 1010.61 1010.86 1011.18 1011.29 1011.37 1011.76 1011.83 1012.09 1012.41 1012.13 1011.53 1011.25 1010.66 1010.14 1009.84 1009.85 1010.02 1010.37 1010.78 1011.15 1011.44
1016.02 1015.97 1016.03 1016.12 1015.92 1015.73 1015.87 1015.68 1015.78 1015.77 1015.51 1015.09 1013.21 1011.36 1008.89 1008.04 1008.25 1008.96 1009.55 1009.88 1010.33 1010.54 1010.34 1010.56 1010.85 1010.88 1011.23 1011.85 1012.19 1012.38 1012.54 1012.65 1012.51 1012.19 1011.45 1010.85 1010.35 1010.19 1010.00 1010.01 1010.11 1010.49 1010.88 1011.43
1016.59 1016.64 1016.41 1016.31 1015.81 1015.76 1015.42 1015.05 1015.02 1014.51 1014.11 1013.34 1011.91 1010.55 1009.04 1008.74 1008.77 1008.89 1009.60 1009.99 1010.12 1010.32 1010.32 1010.63 1010.88 1011.06 1011.64 1012.24 1012.56 1012.88 1012.86 1012.70 1012.46 1012.14 1011.50 1010.95 1010.53 1010.10 1009.81 1009.70 1009.83 1010.21 1010.69 1011.21
1016.77 1016.88 1016.49 1016.34 1015.98 1015.65 1015.42 1014.45 1013.98 1013.51 1012.59 1011.77 1011.11 1010.27 1009.73 1009.15 1008.95 1009.43 1009.96 1010.23 1010.52 1010.50 1010.60 1011.07 1011.27 1011.61 1012.42 1012.89 1013.12 1013.06 1012.87 1012.59 1012.21 1011.67 1011.14 1010.53 1009.94 1009.27 1009.19 1009.23 1009.47 1009.78 1010.31 1010.99
1016.51 1016.60 1016.61 1016.41 1015.88 1015.67 1015.01 1014.17 1013.40 1012.84 1012.52 1012.10 1011.45 1010.50 1010.02 1009.46 1009.43 1009.94 1010.04 1010.33 1010.88 1010.98 1011.41 1011.38 1011.47 1012.31 1013.01 1013.33 1013.35 1013.18 1012.97 1012.60 1012.13 1011.68 1011.05 1010.50 1009.76 1009.16 1008.92 1008.92 1009.11 1009.58 1010.28 1010.97
1016.95 1016.97 1016.70 1016.33 1015.41 1015.03 1014.38 1013.95 1013.68 1013.25 1012.73 1012.22 1011.71 1010.87 1010.41 1010.26 1010.06 1010.08 1010.26 1010.83 1011.06 1011.63 1011.87 1011.65 1012.11 1012.91 1013.42 1013.65 1013.65 1013.38 1013.24 1012.93 1012.51 1011.97 1011.29 1010.65 1010.21 1009.92 1009.60 1009.50 1009.61 1009.98 1010.51 1011.02
1017.50 1017.43 1016.84 1016.07 1015.19 1014.68 1014.42 1014.16 1013.81 1013.43 1013.06 1012.51 1011.86 1011.32 1010.94 1010.74 1010.65 1010.66 1010.94 1011.32 1011.50 1011.66 1011.68 1012.16 1012.81 1013.40 1013.85 1014.06 1013.95 1013.72 1013.44 1013.13 1012.73 1012.29 1011.81 1011.28 1010.79 1010.46 1010.45 1010.48 1010.47 1010.54 1010.94 1011.49
1017.69 1017.39 1016.63 1015.75 1015.52 1015.03 1014.68 1014.36 1014.03 1013.63 1013.39 1012.88 1012.47 1011.85 1011.45 1011.15 1011.06 1011.31 1011.28 1011.70 1011.67 1011.93 1012.35 1012.99 1013.52 1013.91 1014.20 1014.38 1014.32 1014.13 1013.86 1013.45 1013.03 1012.61 1012.23 1011.78 1011.28 1011.05 1010.88 1010.91 1011.06 1011.30 1011.50 1011.67
1017.70 1017.05 1016.21 1016.06 1015.64 1015.21 1014.98 1014.76 1014.38 1014.00 1013.83 1013.19 1012.72 1012.33 1011.70 1011.75 1011.71 1011.72 1011.50 1011.70 1011.92 1012.39 1013.14 1013.83 1014.09 1014.38 1014.59 1014.66 1014.57 1014.41 1014.22 1013.90 1013.51 1013.11 1012.68 1012.31 1011.86 1011.47 1011.32 1011.32 1011.38 1011.50 1011.52 1011.78
Wind_Speed
23 25 26 27 29 22 7 2 4 2 2 4 2 2 1 4 4 2 2 4 4 4 4 3 3 6 4 5 7 6 2 5 3 5 0 4 4 5 5 5 4 2 3 10
22 25 27 28 28 21 2 2 3 3 4 4 4 3 3 2 3 1 3 3 2 2 5 4 2 5 2 7 7 8 5 1 3 4 3 3 3 4 4 4 3 6 4 8
21 23 27 28 29 22 3 3 4 5 4 1 3 5 4 4 2 1 4 3 4 4 3 1 6 3 3 7 6 8 6 3 5 6 5 4 2 4 6 7 3 3 9 10
19 21 24 27 29 23 3 3 1 1 5 4 4 2 4 4 6 5 3 3 5 4 3 3 3 2 2 4 3 3 4 3 2 4 6 4 6 6 8 8 8 7 6 9
17 18 21 24 27 21 4 2 2 1 3 4 5 4 3 5 4 4 4 4 1 0 5 5 7 6 2 4 2 3 2 3 1 4 4 5 5 9 10 10 11 15 17 23
15 16 17 20 24 14 3 3 3 2 1 4 3 2 5 3 2 3 3 4 4 4 2 1 5 3 6 5 7 3 4 5 2 4 5 6 7 12 12 6 6 11 10 15
13 13 14 16 18 12 1 2 3 3 3 1 2 4 3 4 2 1 3 2 3 2 3 3 4 7 5 6 3 4 5 4 3 3 5 2 6 4 6 12 7 12 10 11
14 13 11 13 14 12 3 2 3 2 4 4 7 2 4 3 3 2 1 2 0 1 3 3 3 3 2 3 4 4 4 4 2 2 2 8 4 4 6 7 6 8 13 12
11 12 9 10 12 10 3 1 1 2 3 4 4 4 2 2 1 4 0 1 2 3 3 2 4 4 4 3 2 4 4 5 3 3 2 4 4 1 3 4 4 5 7 7
10 11 11 9 9 7 3 2 2 1 3 4 2 3 3 3 1 3 2 2 1 3 2 2 3 4 2 5 6 5 3 3 5 4 4 8 7 4 4 2 6 1 3 4
11 10 9 11 7 8 3 3 2 3 2 6 4 3 3 5 2 3 2 3 1 2 3 4 4 3 4 3 3 6 7 6 4 4 4 8 5 4 3 5 4 3 4 3
14 10 10 10 11 9 3 2 2 3 3 6 4 14 15 11 13 3 4 2 3 5 4 1 2 2 2 3 3 1 4 7 5 8 7 4 3 4 4 2 3 4 3 3
15 16 10 11 12 11 8 2 2 1 4 6 5 10 10 12 17 11 2 3 2 3 3 4 2 2 3 4 4 2 3 2 3 0 4 7 7 7 4 4 4 4 4 4
16 18 11 12 13 13 11 2 1 1 2 5 8 4 7 5 2 11 18 13 6 1 3 2 2 2 2 3 3 3 4 2 2 5 7 7 4 4 2 2 3 3 1 3
15 16 12 14 13 12 5 3 4 6 4 3 7 9 23 19 16 15 17 14 11 3 3 1 3 1 2 1 1 3 4 5 4 4 3 5 8 4 3 5 4 4 4 2
15 18 14 14 13 10 1 3 0 3 3 4 6 5 5 3 13 12 12 10 7 2 3 3 2 2 3 2 3 4 4 4 3 3 7 12 13 9 5 5 3 3 5 5
16 15 17 16 11 2 3 4 3 1 4 3 5 5 4 7 7 8 5 6 3 3 3 3 3 2 4 2 4 2 3 4 7 3 8 6 5 7 3 4 3 4 3 4
15 18 13 7 2 4 2 3 4 2 2 2 5 6 4 7 5 4 3 3 2 2 2 2 3 2 2 4 1 3 5 9 8 4 6 9 11 6 3 3 4 4 5 5
15 13 2 3 2 0 2 4 11 1 3 3 3 4 1 4 2 3 3 3 2 1 3 2 4 3 5 2 2 5 6 4 11 13 11 12 8 6 4 5 5 5 5 5
11 3 2 2 2 4 5 2 2 2 3 3 4 3 2 2 3 2 3 2 3 1 3 3 3 3 6 4 2 4 6 6 7 8 7 6 5 5 5 7 5 6 6 6
3 3 2 3 5 1 2 2 3 3 4 4 4 4 2 4 2 3 2 2 1 3 2 3 2 3 3 4 4 5 5 6 7 8 10 10 10 10 8 7 7 6 7 7
3 3 3 2 1 1 2 3 2 4 2 2 4 3 3 2 2 4 1 2 0 2 1 1 3 2 3 4 4 6 6 7 9 8 9 10 10 8 8 6 7 7 7 8
1 1 2 2 3 3 4 3 2 2 4 3 3 3 2 0 2 3 2 2 2 2 1 4 2 2 2 5 5 6 6 8 9 10 8 9 8 7 2 3 3 8 8 8
1 1 4 3 3 4 3 2 2 2 2 4 4 2 2 2 3 1 3 1 2 1 3 5 2 2 1 4 4 4 7 7 8 8 9 8 8 6 6 4 4 6 7 8
1 2 5 4 3 2 2 2 1 1 3 3 3 2 1 2 2 1 2 1 3 4 4 1 2 1 2 4 5 6 7 7 7 7 7 7 5 4 3 3 4 6 7 7
1 3 3 3 1 3 2 2 2 1 2 2 1 2 2 2 2 2 4 2 5 4 2 2 2 2 1 3 4 5 6 7 8 7 7 7 7 5 3 3 3 4 5 8
2 4 3 2 2 3 2 2 1 2 2 2 0 3 3 1 2 3 4 4 1 3 2 1 2 0 2 4 4 5 5 7 8 8 8 7 7 5 3 1 2 4 5 5
Wind_Direction
2 359 359 359 356 347 36 36 27 295 31 55 32 53 327 332 299 338 101 104 97 116 120 113 103 187 224 182 133 152 201 123 171 193 75 190 160 159 134 118 240 214 172 275
3 359 358 360 359 355 18 54 287 333 51 74 29 317 293 224 316 11 157 104 115 132 132 121 172 194 229 166 148 172 180 8 52 10 26 344 187 181 144 115 114 207 135 260
5 1 359 358 357 354 58 60 6 329 40 149 2 354 345 331 252 6 81 98 110 93 120 218 177 163 10 160 173 191 109 126 153 187 202 137 194 189 181 154 151 196 232 282
4 2 1 359 357 353 80 27 53 43 326 342 336 319 315 343 1 357 76 55 120 140 116 89 121 106 84 40 123 108 111 130 125 257 243 212 205 203 189 193 198 195 252 260
359 1 6 2 1 351 76 46 16 347 293 303 322 337 340 8 341 7 3 112 226 286 144 192 182 137 152 188 80 109 36 128 31 283 286 224 252 237 221 221 225 245 263 278
351 357 5 7 10 10 52 333 311 272 291 337 354 320 317 330 351 19 42 136 99 81 68 344 165 174 158 170 144 130 116 133 80 290 339 332 288 232 200 185 204 211 220 240
336 346 360 6 13 32 328 9 288 316 277 174 219 326 296 285 340 200 355 66 109 183 111 106 50 53 99 129 127 138 128 110 115 283 346 272 250 162 183 200 231 211 254 271
333 337 346 354 0 24 36 13 7 332 282 299 291 306 286 302 359 47 92 2 183 100 64 74 62 1 65 204 163 146 127 125 129 241 231 284 269 169 156 175 271 215 228 257
337 336 337 347 342 357 65 10 334 354 317 253 334 307 313 246 198 343 276 338 344 61 91 104 161 191 193 188 103 57 91 95 173 198 251 246 255 29 140 122 306 216 195 248
320 327 330 326 327 333 100 283 97 87 278 277 303 249 310 318 293 165 290 197 120 51 104 138 176 239 169 169 179 168 156 190 217 230 264 285 251 227 157 80 239 216 230 256
314 312 323 323 314 310 152 254 202 118 255 282 256 283 314 338 247 174 216 73 311 77 162 172 206 175 217 155 168 174 171 172 187 194 234 264 164 99 185 223 298 273 268 248
317 293 309 311 306 310 132 239 227 157 195 254 249 266 255 243 256 319 298 234 174 177 115 206 129 165 149 167 219 236 201 186 182 192 214 251 197 261 256 183 245 287 293 274
310 320 283 310 304 301 293 223 203 165 262 272 248 251 255 236 228 214 246 264 170 181 162 155 172 182 136 174 232 224 252 181 231 148 266 244 251 267 229 194 234 279 267 236
309 313 299 311 302 298 294 184 181 145 264 264 263 289 261 260 227 202 206 241 317 174 100 121 153 185 182 198 170 209 216 21 221 260 297 312 283 243 259 255 235 258 240 184
305 309 303 305 300 300 311 233 208 192 206 264 281 285 267 254 233 221 207 223 234 225 117 139 200 145 115 240 108 235 184 202 171 243 262 217 265 292 262 247 240 232 177 143
309 308 309 305 301 312 38 294 258 216 177 285 296 274 267 269 179 177 198 202 220 166 139 201 206 201 125 188 227 255 191 172 192 272 308 271 267 268 230 241 223 195 183 182
309 318 314 308 291 137 177 210 236 183 161 258 266 261 258 193 164 193 172 175 181 116 150 217 168 189 155 247 241 281 26 359 331 331 338 299 239 253 231 190 154 143 125 148
318 322 319 301 114 100 223 202 167 112 287 262 283 280 300 153 181 120 135 110 97 101 196 129 163 106 188 250 208 345 6 333 303 354 332 277 285 278 175 114 134 166 183 147
328 324 329 65 38 228 251 236 182 111 245 292 257 283 351 168 94 76 58 77 117 83 184 208 126 174 219 155 306 342 346 310 292 308 304 291 263 274 221 186 191 195 196 164
330 4 41 259 231 315 133 138 211 212 203 226 253 267 249 22 81 76 101 103 164 178 218 136 184 234 109 82 17 328 322 302 304 306 311 336 320 270 245 226 212 206 185 161
27 359 276 257 298 31 230 246 217 202 240 211 242 269 356 4 100 111 60 146 171 183 212 194 209 222 145 15 352 323 304 299 288 268 270 273 261 263 255 246 216 190 176 177
210 246 285 292 278 276 280 248 228 222 280 302 300 334 348 18 13 78 323 118 197 181 114 160 240 132 52 346 313 319 328 317 310 310 311 307 293 261 236 236 208 181 164 146
357 218 279 231 191 231 226 241 247 287 345 2 324 319 325 351 46 87 162 116 159 98 171 234 199 122 17 357 331 328 329 332 334 329 329 328 336 349 332 236 159 148 144 150
45 296 273 224 225 239 221 188 214 316 289 327 318 296 27 338 46 6 89 96 123 212 234 231 158 132 352 358 327 343 337 337 330 334 335 343 349 346 5 38 108 131 141 146
240 205 239 232 261 258 266 263 337 319 312 334 329 305 15 10 95 50 108 125 240 221 231 188 141 200 358 353 350 346 341 341 339 340 339 335 336 7 25 35 60 102 125 128
162 246 272 250 45 304 313 282 279 263 316 273 228 295 344 232 159 153 206 196 229 247 190 130 133 119 19 354 346 339 333 336 339 343 341 344 354 352 343 121 134 149 163 165
278 261 235 216 268 231 247 306 340 337 292 266 295 234 216 4 218 232 194 215 245 185 135 163 166 55 334 347 341 345 345 345 348 341 344 340 337 334 0 325 207 171 160 161